TimeMDT,TemperatureF,Dew PointF,Humidity,Sea Level PressureIn,VisibilityMPH,Wind Direction,Wind SpeedMPH,Gust SpeedMPH,PrecipitationIn,Events,Conditions,WindDirDegrees,DateUTC
12:53 AM,45.0,33.1,63,30.10,10.0,South,9.2,-,N/A,,Clear,180,2013-04-27 06:53:00
1:53 AM,42.1,33.1,70,30.10,10.0,South,3.5,-,N/A,,Clear,180,2013-04-27 07:53:00
2:53 AM,41.0,32.0,70,30.09,10.0,South,8.1,-,N/A,,Clear,170,2013-04-27 08:53:00
3:53 AM,41.0,32.0,70,30.09,10.0,South,8.1,-,N/A,,Clear,170,2013-04-27 09:53:00
4:53 AM,39.0,30.9,73,30.10,10.0,South,6.9,-,N/A,,Clear,170,2013-04-27 10:53:00
5:53 AM,37.9,30.0,73,30.10,10.0,Calm,Calm,-,N/A,,Clear,0,2013-04-27 11:53:00
6:53 AM,39.0,32.0,76,30.11,10.0,South,8.1,-,N/A,,Clear,170,2013-04-27 12:53:00
7:53 AM,45.0,32.0,60,30.13,10.0,South,6.9,-,N/A,,Clear,190,2013-04-27 13:53:00
8:53 AM,50.0,35.1,57,30.13,10.0,Calm,Calm,-,N/A,,Clear,0,2013-04-27 14:53:00
9:53 AM,59.0,28.9,32,30.07,10.0,South,4.6,-,N/A,,Clear,180,2013-04-27 15:53:00
10:53 AM,66.0,27.0,23,30.05,10.0,Variable,4.6,-,N/A,,Clear,0,2013-04-27 16:53:00
11:53 AM,69.1,24.1,18,30.04,10.0,Calm,Calm,-,N/A,,Clear,0,2013-04-27 17:53:00
12:53 PM,70.0,21.9,16,29.99,10.0,Variable,5.8,-,N/A,,Clear,0,2013-04-27 18:53:00
1:53 PM,73.0,18.0,12,29.96,10.0,Calm,Calm,-,N/A,,Clear,0,2013-04-27 19:53:00
2:53 PM,73.9,15.1,11,29.93,10.0,Calm,Calm,-,N/A,,Clear,0,2013-04-27 20:53:00
3:53 PM,75.0,18.0,12,29.90,10.0,Variable,3.5,-,N/A,,Clear,0,2013-04-27 21:53:00
4:53 PM,73.9,14.0,10,29.88,10.0,Calm,Calm,-,N/A,,Clear,0,2013-04-27 22:53:00
5:53 PM,73.9,15.1,11,29.86,10.0,Calm,Calm,-,N/A,,Clear,0,2013-04-27 23:53:00
6:53 PM,72.0,25.0,17,29.86,10.0,NNW,3.5,-,N/A,,Clear,330,2013-04-28 00:53:00
7:53 PM,66.0,28.9,25,29.85,10.0,North,5.8,-,N/A,,Clear,350,2013-04-28 01:53:00
8:53 PM,57.0,36.0,45,29.86,10.0,Calm,Calm,-,N/A,,Clear,0,2013-04-28 02:53:00
9:53 PM,57.9,34.0,41,29.83,10.0,SW,9.2,-,N/A,,Clear,220,2013-04-28 03:53:00
10:53 PM,55.9,36.0,47,29.83,10.0,ESE,4.6,-,N/A,,Clear,110,2013-04-28 04:53:00
11:53 PM,57.0,34.0,42,29.82,10.0,South,8.1,-,N/A,,Clear,170,2013-04-28 05:53:00